This is the latest recevied weather packets stored in our database for station/object DB0TGO-14. If no packets are shown the sender has not sent any weather packets the latest 1 day(s).
| Time | Temp. | Humidity | Pressure | Rain* | Wind** | Luminosity | Snow |
|---|---|---|---|---|---|---|---|
| 1778001918 | 17.22° C | 80% | 1008.2 hPa | 0 mm | 1.79 m/s, 22° | - | - |
| 1778001883 | 17.22° C | 80% | 1008.3 hPa | 0 mm | 1.79 m/s, 22° | - | - |
| 1778001820 | 17.22° C | 80% | 1008.3 hPa | 0 mm | 1.34 m/s, 22° | - | - |
| 1778001710 | 17.22° C | 81% | 1008.2 hPa | 0 mm | 1.34 m/s, 22° | - | - |
| 1778001608 | 17.22° C | 80% | 1008.4 hPa | 0 mm | 1.34 m/s, 45° | - | - |
| 1778001498 | 17.22° C | 80% | 1008.4 hPa | 0 mm | 1.79 m/s, 0° | - | - |
| 1778001397 | 17.22° C | 80% | 1008.3 hPa | 0 mm | 1.79 m/s, 45° | - | - |
| 1778001298 | 17.22° C | 80% | 1008.3 hPa | 0 mm | 1.79 m/s, 45° | - | - |
| 1778001195 | 17.22° C | 80% | 1008.2 hPa | 0 mm | 2.24 m/s, 22° | - | - |
| 1778001075 | 17.78° C | 80% | 1008.2 hPa | 0 mm | 1.79 m/s, 45° | - | - |
| 1778000960 | 17.78° C | 80% | 1008.3 hPa | 0 mm | 2.24 m/s, 45° | - | - |
| 1778000918 | 17.78° C | 79% | 1008.3 hPa | 0 mm | 2.24 m/s, 22° | - | - |
| 1778000857 | 17.78° C | 79% | 1008.3 hPa | 0 mm | 2.24 m/s, 22° | - | - |
| 1778000738 | 17.78° C | 79% | 1008.3 hPa | 0 mm | 2.24 m/s, 45° | - | - |
| 1778000635 | 17.78° C | 79% | 1008.3 hPa | 0 mm | 2.24 m/s, 248° | - | - |
| 1778000535 | 17.78° C | 78% | 1008.3 hPa | 0 mm | 1.79 m/s, 338° | - | - |
| 1778000415 | 17.78° C | 79% | 1008.3 hPa | 0 mm | 1.79 m/s, 22° | - | - |
| 1778000315 | 17.78° C | 79% | 1008.3 hPa | 0 mm | 2.24 m/s, 338° | - | - |
| 1778000202 | 18.33° C | 78% | 1008.3 hPa | 0 mm | 1.79 m/s, 22° | - | - |
| 1778000105 | 18.33° C | 77% | 1008.3 hPa | 0 mm | 1.79 m/s, 45° | - | - |
| 1777999995 | 18.33° C | 77% | 1008.4 hPa | 0 mm | 1.79 m/s, 292° | - | - |
| 1777999897 | 18.33° C | 77% | 1008.4 hPa | 0 mm | 1.79 m/s, 338° | - | - |
| 1777999892 | 18.33° C | 77% | 1008.4 hPa | 0 mm | 1.79 m/s, 338° | - | - |
| 1777999789 | 18.89° C | 77% | 1008.3 hPa | 0 mm | 1.79 m/s, 22° | - | - |
| 1777999675 | 18.89° C | 76% | 1008.3 hPa | 0 mm | 1.79 m/s, 338° | - | - |
* Rain latest hour (hover to see other rain measurements)
** Current wind speed in m/s (hover to see current wind gust speed)